Location: Cz?stków
(51.5500°N, 19.1500°E)
Time: 08:46:24
(UTC+00:00)

Daily predictions for brighter satellites

Satellite Brightness Start Highest point End
(mag) Time Altitude Azimuth Time Altitude Azimuth Time Altitude Azimuth
Cosmos 1066 Rocket 4.3 19:36:45 10° S 19:42:25 70° E 19:48:14 10° NNE
Meteor 2-4 Rocket 3.9 19:38:29 10° SSW 19:44:15 87° WNW 19:50:11 10° NNE
SL-16 R/B 4.3 19:40:15 10° NW 19:44:30 22° W 19:48:43 10° SSW
NOSS 2-2 (E) 2.8 19:43:03 10° SW 19:46:21 82° NW 19:49:22 10° NE
Cosmos 2227 Rocket 4.5 19:41:36 10° WSW 19:46:35 31° NW 19:51:37 10° NNE
Cosmos 1844 3.9 19:41:08 10° S 19:46:45 56° ESE 19:52:25 10° NE
SL-08 R/B 3.4 19:42:10 10° NNE 19:46:47 78° WNW 19:51:21 10° SSW
SL-24 R/B - RUBIN 2 3.8 19:42:37 10° SSW 19:46:57 47° SE 19:51:08 10° NE
NOSS 3-2 (C) 4.4 19:46:11 10° SSE 19:49:46 20° ESE 19:53:46 10° ENE
CZ-4B R/B 3.8 19:45:36 10° SSE 19:50:35 60° ENE 19:55:42 10° N
Cosmos 1766 Rocket 4.3 19:46:27 10° NNW 19:50:43 52° W 19:54:59 10° S
Cosmos 1953 4.2 19:49:58 10° NNE 19:52:10 15° ENE 19:54:22 10° ESE
Okean O Rocket 2.3 19:49:20 10° S 19:53:35 53° W 19:57:53 10° NNW
In-Cosmos 22 4.5 19:48:48 10° S 19:54:23 55° E 20:00:00 10° NNE
CZ-2C R/B 3.4 19:52:44 10° SE 19:55:02 24° ENE 19:57:21 10° N
Cosmos 1943 4.2 19:52:10 10° NW 19:57:23 40° WSW 20:02:35 10° S
ATLAS 2AS CENTAUR R/B 4.2 19:54:30 10° WNW 20:00:04 28° WSW 20:05:39 10° S
Cosmos 2219 4.2 19:58:09 10° SW 20:03:36 51° NW 20:09:05 10° NNE
Cosmos 1655 Rocket 4.2 19:58:22 10° NNW 20:04:44 81° W 20:11:06 10° S
Cosmos 1461 2.6 20:04:49 10° NW 20:08:19 62° SW 20:11:30 11° SSE
Meteor 1-18 Rocket 4.3 20:03:58 10° S 20:09:47 84° E 20:15:43 10° NNE
Cosmos 2298 Rocket 4.4 20:04:53 10° NNW 20:10:07 62° WSW 20:15:19 10° S
CZ-4B R/B 2.9 20:08:13 10° S 20:12:03 78° WSW 20:16:03 10° NNW
USA 186 3.2 20:12:13 10° SSW 20:14:07 21° W 20:15:57 10° NW
Cosmos 1607 4.1 20:08:46 10° NW 20:15:12 89° SW 20:21:26 11° SE
Cosmos 1500 Rocket 3.6 20:11:25 10° N 20:15:46 68° ENE 20:19:50 11° SSE
Sich 1 3.3 20:12:06 10° NNW 20:16:20 64° W 20:20:34 10° S
GP-B 3.4 20:16:00 10° N 20:20:17 50° E 20:24:13 12° SSE
Iridium 4 Rocket 4.1 20:15:34 10° SSE 20:20:35 43° E 20:25:21 10° NNE
Cosmos 2285 Rocket 4.1 20:15:46 10° NNW 20:22:10 88° ENE 20:28:11 12° SSE
NOSS 2-3 (D) 4.4 20:20:35 11° S 20:23:21 22° ESE 20:26:17 10° ENE
Helios 1B rocket 4.2 20:24:35 10° E 20:26:43 16° ENE 20:28:51 10° NNE
Terra 4.3 20:24:22 10° WSW 20:27:01 15° W 20:29:41 10° NW
CENTAUR R/B 3.5 20:25:06 10° WSW 20:30:55 56° NNW 20:38:21 10° NE
Cosmos 1758 3.9 20:27:22 10° NNW 20:30:56 47° W 20:34:29 10° S
Cosmos 1943 Rocket 4.0 20:35:06 10° SE 20:37:47 14° E 20:40:37 10° ENE
BREEZE-M DEB (TANK) 2.2 20:36:47 10° W 20:38:47 34° SSW 20:39:52 20° SE
SPOT 3 Rocket 4.5 20:34:45 10° S 20:39:39 44° W 20:44:34 10° NNW
Ariane Rocket 3.8 20:44:23 10° S 20:49:15 46° W 20:54:09 10° NNW
Cosmos 1328 Rocket 4.4 20:47:48 16° SSE 20:50:42 34° E 20:54:39 10° NNE
NOSS 2-3 (E) 3.6 20:47:17 10° SSW 20:50:43 38° SE 20:54:15 10° ENE
Cosmos 1805 Rocket 4.2 20:48:37 10° NNW 20:52:48 50° W 20:56:45 11° SSW
Cosmos 1340 Rocket 4.4 20:52:56 10° NW 20:56:08 27° W 20:59:18 10° SSW
USA 215 3.3 20:50:09 12° SE 20:56:12 68° SW 21:02:44 10° WNW
Cosmos 1408 Rocket 4.4 20:52:44 10° NNW 20:56:57 46° W 21:01:00 11° SSW
Lacrosse 5 rocket 2.7 20:57:41 15° ESE 20:57:41 15° ESE 20:59:33 10° E
Cosmos 1666 Rocket 3.8 20:53:07 10° N 20:57:26 58° ENE 21:00:30 18° SSE
NOSS 3-2 (A) 3.5 20:53:06 10° SW 20:58:15 73° NW 21:04:35 10° NE
Cosmos 1743 Rocket 3.8 21:00:07 10° NNW 21:04:24 63° W 21:07:49 16° S
Cosmos 1703 2.8 21:04:34 15° SSW 21:07:03 72° WNW 21:10:14 10° N
S3M 4.1 21:04:02 15° S 21:09:04 65° E 21:15:10 10° NNE
GEOS 3 Rocket 3.9 21:04:15 12° SE 21:09:14 74° NE 21:14:39 10° NW
Meteor 1-22 Rocket 4.2 21:04:02 10° NNW 21:09:22 75° W 21:13:31 17° S
Cosmos 1844 Rocket 4.0 21:04:32 10° WSW 21:09:48 42° NW 21:15:06 10° NNE
Meteor 1-15 Rocket 4.3 21:08:31 10° NNW 21:14:24 86° ENE 21:18:45 18° SSE
Cosmos 1553 Rocket 4.5 21:08:31 10° SSW 21:14:50 62° WNW 21:21:06 10° N
Cosmos 1833 Rocket 2.8 21:13:12 10° NNW 21:18:50 74° WSW 21:22:56 19° SSE
Cosmos 1151 Rocket 4.3 21:15:36 10° SW 21:19:39 38° WNW 21:23:44 10° N
Cosmos 1709 Rocket 4.1 21:13:30 10° N 21:19:54 87° E 21:24:50 18° S
Meteor 1-16 Rocket 4.3 21:17:12 10° N 21:22:42 69° ENE 21:26:46 19° SSE
Spot 4 4.4 21:20:33 17° SE 21:24:01 50° ENE 21:28:42 10° N
Cosmos 2082 Rocket 3.4 21:19:04 10° NNW 21:24:16 36° NE 21:29:26 10° ESE
CZ-2C R/B 4.2 21:23:48 11° SW 21:25:32 17° W 21:27:28 10° NW
Cosmos 1953 2.6 21:23:54 10° NNW 21:27:23 50° W 21:29:35 20° SSW
Meteor 1-23 Rocket 4.3 21:25:42 19° S 21:29:42 61° E 21:35:12 10° NNE
IKONOS-2 4.4 21:26:17 10° NNE 21:30:25 89° WNW 21:33:25 18° SSW
Cosmos 2278 Rocket 3.3 21:28:07 18° SE 21:30:57 27° ESE 21:35:39 10° NE
Cosmos 1633 Rocket 3.1 21:30:58 10° NNW 21:35:20 74° W 21:38:07 22° S
Meteor 1-13 Rocket 4.4 21:33:10 14° SSW 21:38:23 79° WNW 21:44:23 10° N
NOSS 3-2 (C) 3.2 21:34:25 10° SW 21:39:33 86° NW 21:45:51 10° NE
Cosmos 1624 Rocket 4.2 21:37:56 10° NNW 21:43:14 69° ENE 21:47:03 19° SE
NOSS 2-3 (C) 2.8 21:42:37 15° SW 21:45:18 75° SE 21:48:59 10° NE
Cosmos 1680 Rocket 4.0 21:42:32 22° SSE 21:45:32 44° ESE 21:50:27 10° NE
CZ-2C R/B 4.3 21:40:48 10° NNE 21:45:39 29° E 21:48:40 18° SE
Meteor 1-12 Rocket 4.3 21:41:16 10° N 21:46:58 77° ENE 21:50:53 21° SSE
Cosmos 1400 Rocket 3.1 21:45:32 10° N 21:49:09 48° ENE 21:51:03 24° SE
Cosmos 2056 Rocket 3.5 21:44:51 10° NNW 21:50:00 78° ENE 21:53:26 21° SSE
USA 238 DEB 4.0 21:48:54 20° S 21:52:38 41° ESE 21:58:50 10° NE
USA 238 4.0 21:49:10 20° S 21:52:52 40° ESE 21:59:02 10° NE
Helios 1A 3.3 21:50:38 10° N 21:54:31 57° WNW 21:57:27 17° SW
ACS3 Solar Sail 3.3 21:52:05 10° NE 21:56:11 20° E 21:59:49 12° SE
Cosmos 2344 3.4 21:50:17 10° SSW 21:57:59 69° SE 22:05:09 10° NE
Helios 1B rocket 2.4 21:57:42 27° SSW 21:59:16 52° WSW 22:02:41 10° NNW
ARIANE 5 R/B 2.6 21:59:12 25° S 22:01:48 80° WSW 22:06:16 10° NNW
Cosmos 1470 Rocket 4.0 22:02:47 10° NNW 22:07:08 54° W 22:09:41 23° SSW
Cosmos 1812 2.7 22:06:15 10° NNE 22:07:25 24° NE 22:07:25 24° NE
Okean 2 3.2 22:07:04 26° SSW 22:09:09 78° W 22:13:01 10° N
NOSS 2-3 (D) 4.1 22:09:10 10° WSW 22:12:45 48° NW 22:16:40 10° NE
ALOS 2 2.7 22:11:55 26° S 22:14:20 71° WSW 22:18:45 10° NNW
Cosmos 1933 Rocket 3.5 22:10:14 10° N 22:14:34 85° E 22:16:54 27° SSE
Cosmos 1943 Rocket 2.2 22:16:32 20° SSW 22:20:33 75° ESE 22:26:12 10° NNE
Cosmos 2074 Rocket 4.0 22:14:58 10° N 22:21:15 84° E 22:25:27 22° SSE
Cosmos 1441 Rocket 3.2 22:21:17 34° SSE 22:22:18 49° E 22:25:27 10° NNE
NOSS 2-1 (E) 4.1 22:23:41 26° SE 22:24:09 27° SE 22:26:59 10° ENE
Cosmos 1295 Rocket 4.4 22:18:36 10° NNW 22:24:43 81° W 22:28:44 23° S
Cosmos 923 Rocket 4.2 22:21:15 16° SSW 22:25:27 72° WNW 22:30:42 10° NNE
CZ-2C R/B 4.1 22:21:49 10° N 22:26:26 61° WNW 22:29:46 19° SW
Cosmos 2112 Rocket 3.9 22:28:53 22° SSW 22:32:16 84° ESE 22:37:29 10° NNE
Lacrosse 5 rocket 0.8 22:30:44 17° SW 22:33:25 80° SSE 22:36:55 10° ENE
CZ-2C R/B 2.6 22:31:43 22° SSE 22:35:09 76° ENE 22:40:24 10° NNW
USA 81 4.4 22:32:30 10° NNW 22:37:40 57° W 22:40:53 22° SSW
USA 215 4.4 22:37:29 19° SSW 22:40:04 24° SW 22:45:08 10° WNW
PSLV R/B 3.9 22:37:10 10° N 22:41:47 70° WNW 22:44:44 22° SSW
Timation 2 Rocket 4.2 22:42:26 22° S 22:46:29 61° ESE 22:52:56 10° NE
Cosmos 1869 Rocket 3.7 22:42:18 10° NNW 22:46:33 63° W 22:48:44 27° S
Cosmos 1452 Rocket 3.7 22:42:42 10° NNW 22:47:59 70° ENE 22:52:03 17° SE
Cosmos 1110 Rocket 3.9 22:42:52 10° NNW 22:48:06 82° WSW 22:51:24 23° SSE
MetOp-A 3.5 22:53:36 29° S 22:55:25 59° WSW 22:59:14 10° NNW
Nadezhda 1 Rocket 4.0 22:51:54 23° S 22:55:55 77° E 23:02:08 10° NNE
NOSS 2-1 (D) 2.7 22:55:59 31° SSW 22:57:28 71° SE 23:00:30 10° NE
Cosmos 2154 Rocket 4.2 22:51:41 10° NNW 22:57:48 63° W 23:01:51 22° SSW
Cosmos 2184 Rocket 4.3 22:52:41 10° NNW 22:58:48 58° W 23:02:54 22° SSW
NOSS 2-1 (C) 2.8 22:59:05 32° SSW 23:00:29 63° SE 23:03:31 10° NE
USA-17 4.3 22:58:16 10° NW 23:01:24 57° SW 23:02:26 36° SSE
USA 59 Rocket -0.8 23:01:29 25° SW 23:03:16 84° NW 23:06:14 10° NE
IRIDIUM 114 4.4 22:59:32 10° N 23:04:47 79° E 23:08:09 23° S
Cosmos 1707 Rocket 4.0 23:03:12 24° SSE 23:05:33 50° E 23:09:49 10° NNE
Cosmos 1733 Rocket 2.9 23:02:24 10° N 23:06:44 87° E 23:09:08 26° SSE
Cosmos 1315 Rocket 3.5 23:04:27 10° N 23:08:06 44° ENE 23:10:37 18° SE
Cosmos 2082 Rocket 2.5 23:03:06 10° NW 23:08:33 52° WSW 23:11:51 23° S
Cosmos 2341 Rocket 4.3 23:03:06 10° N 23:09:20 62° ENE 23:14:24 16° SSE
IRIDIUM 103 4.3 23:08:42 10° N 23:13:57 88° W 23:17:17 23° S
Cosmos 2278 Rocket 2.5 23:09:54 15° SW 23:14:37 63° NW 23:20:17 10° NNE
Cosmos 1862 Rocket 3.6 23:13:23 26° S 23:15:42 68° E 23:19:58 10° NNE
ATLAS 5 CENTAUR R/B 2.9 23:16:46 12° ESE 23:16:54 12° ESE 23:18:12 10° E
Cosmos 1656 Rocket 3.9 23:13:56 23° S 23:17:11 54° ESE 23:22:36 10° NE
Cosmos 1331 Rocket 4.3 23:15:43 10° NNW 23:20:41 49° WSW 23:23:34 23° S
Okean 1-7 2.9 23:20:00 27° S 23:22:15 81° E 23:26:29 10° NNE
SL-8 Rocket 4.0 23:18:16 10° N 23:24:28 80° E 23:29:13 18° SSE
CZ-2C R/B 3.7 23:20:16 10° N 23:25:41 52° WNW 23:29:38 17° SW
COSMOS 2406 3.2 23:21:17 10° NNW 23:26:59 75° WSW 23:31:27 17° SSE
IRIDIUM 106 4.5 23:27:03 10° N 23:32:14 64° W 23:35:33 22° SSW
Cosmos 1048 Rocket 4.3 23:31:19 18° SW 23:35:06 63° WNW 23:40:22 10° NNE
Cosmos 1328 4.4 23:35:16 22° SW 23:37:04 39° WNW 23:40:27 10° N
Cosmos 1908 Rocket 4.0 23:34:00 10° N 23:38:24 59° ENE 23:41:54 16° SSE
ACS3 Solar Sail 1.7 23:33:21 10° N 23:39:04 80° WNW 23:43:11 20° SSW
USA 238 DEB 4.1 23:37:08 10° WSW 23:43:19 61° NW 23:50:15 10° NE
USA 238 4.0 23:37:20 10° WSW 23:43:32 61° NW 23:50:28 10° NE
Lacrosse 4 Rocket 3.0 23:39:43 10° NNW 23:43:39 36° NE 23:47:32 10° ESE
ARIANE 6 FM1 Upper Stage 4.2 23:43:05 18° SSE 23:44:49 23° ESE 23:48:04 10° ENE
Geosat 4.0 23:40:58 10° NNE 23:45:59 78° NW 23:49:42 18° SW
BREEZE-M DEB (TANK) 2.9 23:42:49 10° W 23:51:44 55° SSW 23:55:00 10° SE
Cosmos 546 4.4 23:48:02 10° W 23:51:49 77° S 23:55:36 10° E
